Observer details:
474 Mount John Observatory, Lake Tekapo.  Observers A. C. Gilmore, P. M.
    Kilmartin.  Measurer P. M. Kilmartin.  1.0-m f/7.7 Reflector + CCD.
807 Cerro Tololo Observatory, La Serena.  Observers T. Linder, R. Holmes.
    0.61-m f/11 Ritchey-Chretien + CCD.
E94 Possum Observatory, Gisborne.  Observer J. Drummond.  0.41-m f/4.5
    Newtonian + CCD.
I47 Pierre Auger Observatory, Malargue.  Observer M. Masek.  0.3-m f/6.8
    reflector + CCD.
L09 Sutherland-LCO Aqawan A #1.  Observer A. Hale.  0.35-m f/3 Cassegrain +
    CCD.
M21 Schiaparelli Southern Observatory, Hakos.  Observers A. Aletti, F.
    Bellini, L. Buzzi, G. Galli.  Measurer A. Aletti.  0.36-m f/8.4 Ritchey-
    Chretien + CCD.
M22 ATLAS South Africa, Sutherland.  Observers L. Denneau, R. Siverd, J.
    Tonry, H. Weiland.  Measurers L. Denneau, N. Erasmus, A. Fitzsimmons, A.
    Lawrence, J. Robinson, R. Siverd, J. Tonry, H. Weiland.  0.5-m Reflector +
    CCD.
M49 IAS Remote Observatory, Hakos.  Observers D. Husar, M. Junius.  Measurer
    D. Husar.  0.25-m f/4.5 reflector + CMO.
Q58 Siding Spring-LCO Clamshell #1.  Observer A. Hale.  0.35-m f/3 Cassegrain
    + CCD.
Q62 iTelescope Observatory, Siding Spring.  Observer M. Urbanik.  0.3-m f/9
    reflector + CCD.
W68 ATLAS Chile, Rio Hurtado.  Observers L. Denneau, R. Siverd, J. Tonry, H.
    Weiland.  Measurers L. Denneau, N. Erasmus, A. Fitzsimmons, A. Lawrence,
    J. Robinson, R. Siverd, J. Tonry, H. Weiland.  0.5-m Reflector + CCD.
W88 Slooh.com Chile Observatory, La Dehesa.  Observers N. Paul, B.
    Lutkenhoner, M. Kumrucu-Lohmiller, E. Cortes.  0.43-m f/6.8 CDK17 + CCD,
    0.43-m f/6.8 Corrected Dall-Kirkham + CCD.
X03 Observatoire SADR, Poroto.  Observers J. L. Virlichie, P. Traverse, H.
    Roy.  Measurer J. L. Virlichie.  0.36-m f/4.8 reflector + CCD.
X07 iTelescope Deep Sky Chile, Rio Hurtado.  Observer H. Sato.  0.51-m f/6.8
    astrograph + CCD.
X09 Deep Random Survey, Rio Hurtado.  Observers A. Schnabel, D. Ruhela.
    Measurer S. Deen.  0.43-m reflector + CMOS.

Orbital elements:
    C/2024 A1 (ATLAS)                                                           
Epoch 2023 Sept. 13.0 TT = JDT 2460200.5                                        
T 2025 June 15.71350 TT                                 Rudenko                 
q   3.8799334            (2000.0)            P               Q                  
z  +0.0023999      Peri.  353.38033     -0.38391032     +0.02740760             
 +/-0.0000168      Node   112.22170     +0.88630549     -0.26942111             
e   0.9906884      Incl.   94.42858     +0.25898929     +0.96263237             
>From 94 observations 2024 Jan. 3-19, mean residual 0".4.                        
                                                                                
Ephemeris:
Date    TT    R. A. (2000) Decl.     Delta      r    Elong.  Phase   m1    m2
2023 12 22    07 24 15.9 -66 08 44   5.8771  5.9407    88.9     9.5  18.6
...
2024 01 06    07 01 00.5 -65 31 24   5.7383  5.8533    91.9     9.7  18.5
...
2024 01 14    06 48 43.5 -64 48 19   5.6690  5.8069    93.2     9.7  18.4
...
2024 01 20    06 40 02.4 -64 05 15   5.6200  5.7723    94.0     9.8  18.4
2024 01 21    06 38 39.2 -63 57 12   5.6121  5.7665    94.1     9.8  18.4
2024 01 22    06 37 17.3 -63 48 54   5.6043  5.7608    94.2     9.8  18.3
...
2024 01 28    06 29 32.8 -62 54 08   5.5593  5.7263    94.8     9.9  18.3
...
2024 02 05    06 20 35.7 -61 28 37   5.5047  5.6805    95.3    10.0  18.2
...
2024 02 20    06 08 32.0 -58 15 49   5.4208  5.5951    95.0    10.1  18.1

M. P. C. Staff               (C) Copyright 2024 MPC           M.P.E.C. 2024-B78





More information about the Iaude mailing list